Orbital Elements at Epoch 2459200.5 (2020-Dec-17.0) TDB
Reference: JPL 20 (heliocentric ecliptic J2000)
Element | Value | Uncertainty (1-sigma) | Units |
e | .1781240016223886 | 4.2829e-08 | |
a | 2.457043106238415 | 1.4538e-08 | au |
q | 2.019384755996525 | 1.0436e-07 | au |
i | 9.897479184321716 | 4.6414e-06 | deg |
node | 285.4394762221552 | 2.637e-05 | deg |
peri | 233.4042796650135 | 2.8924e-05 | deg |
M | 16.12542929836617 | 1.4712e-05 | deg |
tp | 2459137.487548637676 (2020-Oct-14.98754864) | 5.7201e-05 | TDB |
period | 1406.75215962994 3.85 | 1.2485e-05 3.418e-08 | d yr |
n | .2559086172611255 | 2.2712e-09 | deg/d |
Q | 2.894701456480305 | 1.7127e-08 | au |
|
| | Orbit Determination Parameters
Additional Information
|